Time,TemperatureF,DewpointF,PressureIn,WindDirection,WindDirectionDegrees,WindSpeedMPH,WindSpeedGustMPH,Humidity,HourlyPrecipIn,Conditions,Clouds,dailyrainin,SolarRadiationWatts/m^2,SoftwareType,DateUTC
2013-10-27 00:04:00,38.0,28.0,-100.00,SW,226,2.0,8.0,66,0.00,,,0.00,0.000000,,2013-10-27 05:04:00,
2013-10-27 00:43:00,38.0,29.0,-100.00,SW,227,3.0,6.0,69,0.00,,,0.00,0.000000,,2013-10-27 05:43:00,
2013-10-27 00:52:00,38.0,29.0,-100.00,SW,227,3.0,6.0,69,0.00,,,0.00,0.000000,,2013-10-27 05:52:00,
2013-10-27 01:01:00,38.0,29.0,-100.00,SW,227,3.0,6.0,69,0.00,,,0.00,0.000000,,2013-10-27 06:01:00,
2013-10-27 01:42:00,37.0,28.0,-100.00,SW,230,2.0,8.0,69,0.00,,,0.00,0.000000,,2013-10-27 06:42:00,
2013-10-27 01:53:00,37.0,28.0,-100.00,SW,230,2.0,8.0,69,0.00,,,0.00,0.000000,,2013-10-27 06:53:00,
2013-10-27 02:02:00,37.0,28.0,-100.00,SW,230,2.0,8.0,69,0.00,,,0.00,0.000000,,2013-10-27 07:02:00,
2013-10-27 02:42:00,31.0,27.0,-100.00,SSW,198,0.0,4.0,85,0.00,,,0.00,0.000000,,2013-10-27 07:42:00,
2013-10-27 02:52:00,31.0,27.0,-100.00,SSW,198,0.0,4.0,85,0.00,,,0.00,0.000000,,2013-10-27 07:52:00,
2013-10-27 03:03:00,31.0,27.0,-100.00,SSW,198,0.0,4.0,85,0.00,,,0.00,0.000000,,2013-10-27 08:03:00,
2013-10-27 03:42:00,29.0,26.0,-100.00,SSW,206,1.0,3.0,87,0.00,,,0.00,0.000000,,2013-10-27 08:42:00,
2013-10-27 03:52:00,29.0,26.0,-100.00,SSW,206,1.0,3.0,87,0.00,,,0.00,0.000000,,2013-10-27 08:52:00,
2013-10-27 04:02:00,29.0,26.0,-100.00,SSW,206,1.0,3.0,87,0.00,,,0.00,0.000000,,2013-10-27 09:02:00,
2013-10-27 04:43:00,29.0,26.0,-100.00,SSW,201,1.0,5.0,88,0.00,,,0.00,0.000000,,2013-10-27 09:43:00,
2013-10-27 04:54:00,29.0,26.0,-100.00,SSW,201,1.0,5.0,88,0.00,,,0.00,0.000000,,2013-10-27 09:54:00,
2013-10-27 05:03:00,29.0,26.0,-100.00,SSW,201,1.0,5.0,88,0.00,,,0.00,0.000000,,2013-10-27 10:03:00,
2013-10-27 05:42:00,29.0,26.0,-100.00,SSW,198,2.0,6.0,88,0.00,,,0.00,0.000000,,2013-10-27 10:42:00,
2013-10-27 05:53:00,29.0,26.0,-100.00,SSW,198,2.0,6.0,88,0.00,,,0.00,0.000000,,2013-10-27 10:53:00,
2013-10-27 06:03:00,29.0,26.0,-100.00,SSW,198,2.0,6.0,88,0.00,,,0.00,0.000000,,2013-10-27 11:03:00,
2013-10-27 06:42:00,29.0,26.0,-100.00,SSE,164,1.0,5.0,89,0.00,,,0.00,0.000000,,2013-10-27 11:42:00,
2013-10-27 06:52:00,29.0,26.0,-100.00,SSE,164,1.0,5.0,89,0.00,,,0.00,0.000000,,2013-10-27 11:52:00,
2013-10-27 07:01:00,29.0,26.0,-100.00,SSE,164,1.0,5.0,89,0.00,,,0.00,0.000000,,2013-10-27 12:01:00,
2013-10-27 07:42:00,30.0,27.0,-100.00,SSW,205,4.0,8.0,87,0.00,,,0.00,0.000000,,2013-10-27 12:42:00,
2013-10-27 07:52:00,30.0,27.0,-100.00,SSW,205,4.0,8.0,87,0.00,,,0.00,0.000000,,2013-10-27 12:52:00,
2013-10-27 08:02:00,30.0,27.0,-100.00,SSW,205,4.0,8.0,87,0.00,,,0.00,0.000000,,2013-10-27 13:02:00,
2013-10-27 08:42:00,32.0,28.0,-100.00,South,186,4.0,11.0,85,0.00,,,0.00,5.000000,,2013-10-27 13:42:00,
2013-10-27 08:52:00,32.0,28.0,-100.00,South,186,4.0,11.0,85,0.00,,,0.00,5.000000,,2013-10-27 13:52:00,
2013-10-27 09:02:00,32.0,28.0,-100.00,South,186,4.0,11.0,85,0.00,,,0.00,5.000000,,2013-10-27 14:02:00,
2013-10-27 09:42:00,36.0,28.0,-100.00,SSW,210,5.0,15.0,73,0.00,,,0.00,40.000000,,2013-10-27 14:42:00,
2013-10-27 09:52:00,36.0,28.0,-100.00,SSW,210,5.0,15.0,73,0.00,,,0.00,40.000000,,2013-10-27 14:52:00,
2013-10-27 10:01:00,36.0,28.0,-100.00,SSW,210,5.0,15.0,73,0.00,,,0.00,40.000000,,2013-10-27 15:01:00,
2013-10-27 10:45:00,41.0,30.0,-100.00,SSW,212,6.0,13.0,65,0.00,,,0.00,147.000000,,2013-10-27 15:45:00,
2013-10-27 10:54:00,41.0,30.0,-100.00,SSW,212,6.0,13.0,65,0.00,,,0.00,147.000000,,2013-10-27 15:54:00,
2013-10-27 11:04:00,41.0,30.0,-100.00,SSW,212,6.0,13.0,65,0.00,,,0.00,147.000000,,2013-10-27 16:04:00,
2013-10-27 11:43:00,46.0,30.0,-100.00,SW,224,7.0,14.0,54,0.00,,,0.00,337.000000,,2013-10-27 16:43:00,
2013-10-27 11:53:00,46.0,30.0,-100.00,SW,224,7.0,14.0,54,0.00,,,0.00,337.000000,,2013-10-27 16:53:00,
2013-10-27 12:04:00,46.0,30.0,-100.00,SW,224,7.0,14.0,54,0.00,,,0.00,337.000000,,2013-10-27 17:04:00,
2013-10-27 12:43:00,48.0,30.0,-100.00,WSW,247,6.0,13.0,50,0.00,,,0.00,294.000000,,2013-10-27 17:43:00,
2013-10-27 12:53:00,48.0,30.0,-100.00,WSW,247,6.0,13.0,50,0.00,,,0.00,294.000000,,2013-10-27 17:53:00,
2013-10-27 13:01:00,48.0,30.0,-100.00,WSW,247,6.0,13.0,50,0.00,,,0.00,294.000000,,2013-10-27 18:01:00,
2013-10-27 13:43:00,52.0,31.0,-100.00,West,267,5.0,13.0,45,0.00,,,0.00,449.000000,,2013-10-27 18:43:00,
2013-10-27 13:52:00,52.0,31.0,-100.00,West,267,5.0,13.0,45,0.00,,,0.00,449.000000,,2013-10-27 18:52:00,
2013-10-27 14:02:00,52.0,31.0,-100.00,West,267,5.0,13.0,45,0.00,,,0.00,449.000000,,2013-10-27 19:02:00,
2013-10-27 14:42:00,53.0,31.0,-100.00,West,274,5.0,11.0,43,0.00,,,0.00,448.000000,,2013-10-27 19:42:00,
2013-10-27 14:52:00,53.0,31.0,-100.00,West,274,5.0,11.0,43,0.00,,,0.00,448.000000,,2013-10-27 19:52:00,
2013-10-27 15:02:00,53.0,31.0,-100.00,West,274,5.0,11.0,43,0.00,,,0.00,448.000000,,2013-10-27 20:02:00,
2013-10-27 15:43:00,53.0,32.0,-100.00,NW,325,6.0,11.0,44,0.00,,,0.00,430.000000,,2013-10-27 20:43:00,
2013-10-27 15:52:00,53.0,32.0,-100.00,NW,325,6.0,11.0,44,0.00,,,0.00,430.000000,,2013-10-27 20:52:00,
2013-10-27 16:02:00,53.0,32.0,-100.00,NW,325,6.0,11.0,44,0.00,,,0.00,430.000000,,2013-10-27 21:02:00,
2013-10-27 16:44:00,53.0,32.0,-100.00,NW,324,5.0,17.0,44,0.00,,,0.00,296.000000,,2013-10-27 21:44:00,
2013-10-27 16:54:00,53.0,32.0,-100.00,NW,324,5.0,17.0,44,0.00,,,0.00,296.000000,,2013-10-27 21:54:00,
2013-10-27 17:04:00,53.0,32.0,-100.00,NW,324,5.0,17.0,44,0.00,,,0.00,296.000000,,2013-10-27 22:04:00,
2013-10-27 17:43:00,53.0,31.0,-100.00,North,350,4.0,15.0,43,0.00,,,0.00,215.000000,,2013-10-27 22:43:00,
2013-10-27 17:54:00,53.0,31.0,-100.00,North,350,4.0,15.0,43,0.00,,,0.00,215.000000,,2013-10-27 22:54:00,
2013-10-27 18:03:00,53.0,31.0,-100.00,North,350,4.0,15.0,43,0.00,,,0.00,215.000000,,2013-10-27 23:03:00,
2013-10-27 18:43:00,49.0,30.0,-100.00,North,0,7.0,14.0,48,0.00,,,0.00,57.000000,,2013-10-27 23:43:00,
2013-10-27 18:52:00,49.0,30.0,-100.00,North,0,7.0,14.0,48,0.00,,,0.00,57.000000,,2013-10-27 23:52:00,
2013-10-27 19:02:00,49.0,30.0,-100.00,North,0,7.0,14.0,48,0.00,,,0.00,57.000000,,2013-10-28 00:02:00,
2013-10-27 19:43:00,47.0,29.0,-100.00,North,7,9.0,17.0,50,0.00,,,0.00,0.000000,,2013-10-28 00:43:00,
2013-10-27 19:52:00,47.0,29.0,-100.00,North,7,9.0,17.0,50,0.00,,,0.00,0.000000,,2013-10-28 00:52:00,
2013-10-27 20:01:00,47.0,29.0,-100.00,North,7,9.0,17.0,50,0.00,,,0.00,0.000000,,2013-10-28 01:01:00,
2013-10-27 20:42:00,43.0,28.0,-100.00,NNE,19,9.0,27.0,54,0.00,,,0.00,0.000000,,2013-10-28 01:42:00,
2013-10-27 20:52:00,43.0,28.0,-100.00,NNE,19,9.0,27.0,54,0.00,,,0.00,0.000000,,2013-10-28 01:52:00,
2013-10-27 21:02:00,43.0,28.0,-100.00,NNE,19,9.0,27.0,54,0.00,,,0.00,0.000000,,2013-10-28 02:02:00,
2013-10-27 21:42:00,43.0,27.0,-100.00,NNE,21,7.0,18.0,52,0.00,,,0.00,0.000000,,2013-10-28 02:42:00,
2013-10-27 21:53:00,43.0,27.0,-100.00,NNE,21,7.0,18.0,52,0.00,,,0.00,0.000000,,2013-10-28 02:53:00,
2013-10-27 22:02:00,43.0,27.0,-100.00,NNE,21,7.0,18.0,52,0.00,,,0.00,0.000000,,2013-10-28 03:02:00,
2013-10-27 22:44:00,40.0,27.0,-100.00,NNE,25,6.0,16.0,59,0.00,,,0.00,0.000000,,2013-10-28 03:44:00,
2013-10-27 22:54:00,40.0,27.0,-100.00,NNE,25,6.0,16.0,59,0.00,,,0.00,0.000000,,2013-10-28 03:54:00,
2013-10-27 23:04:00,40.0,27.0,-100.00,NNE,25,6.0,16.0,59,0.00,,,0.00,0.000000,,2013-10-28 04:04:00,
2013-10-27 23:43:00,38.0,27.0,-100.00,NNE,29,5.0,12.0,65,0.00,,,0.00,0.000000,,2013-10-28 04:43:00,
2013-10-27 23:53:00,38.0,27.0,-100.00,NNE,29,5.0,12.0,65,0.00,,,0.00,0.000000,,2013-10-28 04:53:00,